Wind_Speed
26 26 27 27 26 26 26 27 27 26 26 26 26 26 26 26 25 25 26 26 26 25 25 25 26 26 26 26 26 26 25 26 26 26 26 26 25 25
25 25 26 26 25 24 25 26 26 26 26 26 25 25 25 26 26 25 25 25 26 25 24 25 26 26 26 26 26 26 25 25 25 25 25 24 23 21
25 25 25 25 25 25 25 25 26 26 26 25 25 26 26 26 25 24 24 24 24 25 25 25 25 25 26 26 25 25 25 24 24 23 23 22 21 20
24 24 23 23 23 23 23 23 24 24 24 24 24 24 24 24 24 24 23 23 23 24 24 24 24 24 24 24 23 24 23 23 22 22 21 21 21 20
23 23 22 22 21 21 22 22 22 22 23 23 23 23 23 23 23 23 23 23 23 23 24 24 23 23 22 22 22 23 22 22 22 22 22 21 21 20
21 21 21 21 21 21 21 21 21 22 22 22 22 22 22 22 22 23 23 23 23 23 23 23 22 21 21 21 22 21 22 22 21 21 21 20 20 19
20 20 20 20 20 21 21 21 21 21 21 21 21 21 21 21 21 22 22 22 22 21 21 21 21 20 20 20 20 20 21 21 21 21 19 19 19 19
19 19 19 19 20 20 21 21 20 20 21 20 20 20 21 20 20 21 21 21 20 20 20 21 20 19 19 19 18 19 19 19 19 18 18 17 18 18
18 18 19 19 19 19 20 20 20 20 20 20 20 21 20 19 19 19 20 20 20 20 19 19 19 18 18 17 17 17 17 17 17 17 18 17 17 17
17 17 17 17 17 17 18 18 18 18 19 19 19 19 18 18 17 17 17 18 18 18 18 18 17 16 16 16 16 17 16 16 17 17 17 17 17 16
15 15 14 14 15 15 16 16 15 16 16 16 16 16 16 16 16 16 16 16 16 16 16 16 15 15 15 15 16 16 15 15 16 16 16 16 16 16
14 13 13 14 14 14 13 13 14 14 15 15 15 15 15 15 14 14 14 14 14 14 14 14 14 14 14 14 14 14 14 14 15 15 15 15 15 16
12 12 11 12 12 11 11 12 12 12 13 14 14 14 14 13 12 12 12 12 13 13 13 13 13 13 14 14 14 14 14 14 15 15 14 15 15 16
10 10 9 9 9 9 9 10 10 10 11 11 11 11 11 11 11 11 11 12 12 12 12 12 13 13 13 13 13 13 14 15 14 14 14 15 16 16
9 9 8 8 8 8 8 8 8 8 8 9 9 9 10 10 10 11 11 12 12 13 13 13 12 13 13 12 13 13 13 13 13 14 14 15 16 17
7 7 7 6 6 6 6 6 6 7 7 7 8 9 9 10 10 10 11 11 12 13 13 12 12 12 12 11 12 12 13 13 14 15 15 16 17 18
6 6 6 5 5 5 5 5 6 6 7 7 7 8 9 9 9 9 10 10 11 12 13 12 12 12 12 12 12 12 13 14 15 15 16 17 18 20
4 4 5 5 5 5 5 5 5 5 6 7 7 8 8 8 9 9 9 9 10 10 11 11 12 12 12 12 13 14 14 15 16 17 18 19 20 22
2 3 3 4 4 4 4 5 5 5 6 6 7 7 7 8 8 8 9 9 10 10 11 11 12 12 12 12 13 15 16 17 18 19 20 21 23 24
2 2 3 4 4 4 4 5 5 6 7 7 7 8 8 8 8 9 9 10 10 11 11 11 12 13 14 15 16 17 19 20 20 21 23 24 25 26
2 3 3 4 5 5 6 6 7 7 7 7 8 9 9 9 9 9 9 10 11 12 12 13 14 15 16 18 19 20 21 22 23 25 25 26 27 28
2 3 4 5 6 6 7 7 8 8 8 8 9 9 10 10 11 11 11 12 13 14 15 16 17 18 19 21 22 23 24 25 26 26 27 28 29 29
3 3 4 5 6 7 8 8 8 9 10 10 10 10 11 12 13 13 14 15 16 17 18 19 20 21 22 23 24 25 26 27 27 28 28 29 30 31
Wind_Direction
270 269 267 265 264 262 259 257 256 258 258 257 257 258 260 261 260 259 258 260 262 264 265 265 265 267 268 271 272 272 272 273 276 275 277 279 278 278
268 267 267 265 262 259 257 256 255 256 257 256 255 256 259 260 261 260 261 262 263 264 266 266 266 266 268 269 269 269 271 274 276 275 278 278 279 277
268 268 267 264 260 258 257 256 256 256 255 255 254 256 259 260 259 260 261 261 262 263 266 268 266 267 267 268 268 270 271 273 274 274 275 275 276 276
269 268 266 262 260 257 257 256 255 255 255 255 255 257 258 258 258 260 262 262 262 263 265 268 268 268 268 267 267 268 269 271 272 273 274 274 275 276
272 270 266 262 259 259 259 257 256 255 256 257 258 259 260 259 259 260 261 262 262 263 264 266 266 267 266 264 267 267 269 270 272 272 271 275 276 277
272 270 267 265 261 260 260 258 256 256 256 257 259 260 260 260 260 259 260 261 263 263 261 263 264 264 265 266 267 269 271 270 270 271 271 274 275 276
270 268 267 266 263 261 260 259 256 254 254 257 258 258 260 261 262 262 262 263 263 262 259 260 262 264 265 266 267 267 269 270 270 270 271 273 275 276
268 267 267 267 265 262 259 259 258 256 256 257 258 259 260 262 262 261 262 262 260 258 258 259 260 260 262 265 267 267 268 267 268 269 270 272 274 276
268 267 268 267 265 262 260 259 258 257 258 257 256 257 259 260 261 259 258 258 257 257 256 258 258 259 261 263 264 264 266 266 266 266 269 271 273 275
268 267 267 266 264 263 263 262 259 256 255 254 254 255 257 258 259 260 258 257 256 254 253 255 257 258 260 263 265 265 266 266 265 265 267 270 271 272
269 268 268 265 263 262 263 260 255 251 250 250 252 252 253 256 256 257 257 255 252 252 251 251 253 256 260 265 266 266 267 267 265 266 267 269 270 273
268 267 265 264 265 264 262 259 252 249 250 251 250 247 248 250 250 250 250 249 247 247 248 250 252 255 261 264 264 265 265 266 265 268 269 270 272 274
262 260 263 265 263 259 258 256 251 250 249 248 247 245 243 243 245 245 245 246 246 245 247 251 254 257 260 264 263 264 266 268 268 268 270 272 275 277
260 258 259 260 261 256 254 252 251 251 251 247 244 243 242 242 242 241 243 244 243 244 247 251 257 259 261 262 263 265 268 268 267 268 271 274 276 278
255 257 257 260 259 254 254 253 249 248 248 243 241 241 239 238 239 239 240 244 245 247 249 252 259 263 263 263 265 268 269 269 269 272 275 279 281 283
257 253 254 254 256 251 251 247 244 244 243 244 243 237 233 233 236 239 241 243 245 248 249 254 259 263 265 266 268 269 270 272 275 278 280 283 285 287
253 247 250 251 251 248 244 244 246 238 237 238 233 228 227 231 234 237 240 246 249 252 253 255 259 262 264 266 268 269 271 276 279 282 283 285 289 291
244 240 243 251 252 251 245 243 243 242 235 232 228 229 231 234 238 240 245 250 252 254 256 258 259 260 261 264 268 272 275 279 282 285 287 289 291 293
241 246 243 240 240 238 240 241 243 242 235 230 227 230 235 238 241 244 249 254 257 259 262 264 265 267 268 269 273 278 281 283 285 286 288 290 292 293
248 243 235 232 236 240 247 246 243 238 238 232 234 238 241 242 246 250 254 260 264 268 270 270 272 274 274 275 278 280 284 286 288 289 290 291 293 294
263 243 240 236 239 247 256 253 249 249 244 241 243 244 245 245 249 254 259 265 271 275 278 279 280 279 279 279 280 282 285 286 288 290 291 292 293 294
279 260 255 251 249 252 255 256 256 254 253 251 250 251 251 252 255 260 265 270 275 279 283 283 281 281 281 282 283 285 287 287 288 289 291 293 294 295
290 278 271 263 260 258 259 259 262 263 260 258 253 255 258 261 265 268 271 274 277 280 283 284 285 284 284 285 286 288 289 289 290 291 292 293 295 296
Height
5774 5774 5774 5774 5774 5774 5774 5775 5777 5778 5779 5780 5781 5782 5783 5784 5785 5786 5787 5788 5789 5790 5791 5791 5792 5793 5793 5793 5793 5793 5792 5792 5791 5791 5790 5789 5788 5787
5767 5767 5767 5767 5767 5767 5768 5768 5769 5771 5772 5773 5774 5775 5776 5777 5778 5779 5781 5782 5783 5784 5784 5785 5785 5786 5786 5786 5786 5786 5786 5786 5785 5784 5784 5783 5782 5781
5760 5760 5760 5760 5760 5760 5761 5761 5762 5763 5765 5766 5767 5768 5769 5770 5771 5773 5774 5775 5776 5777 5777 5778 5778 5779 5779 5779 5779 5780 5780 5779 5779 5778 5778 5777 5776 5776
5753 5753 5753 5753 5753 5753 5754 5755 5756 5757 5758 5759 5761 5762 5763 5764 5765 5766 5767 5768 5769 5770 5771 5771 5772 5772 5772 5773 5773 5773 5773 5773 5773 5772 5772 5772 5771 5770
5746 5747 5747 5747 5747 5747 5748 5749 5750 5751 5752 5753 5754 5755 5756 5757 5758 5759 5760 5761 5762 5763 5764 5765 5765 5766 5766 5766 5767 5767 5767 5767 5767 5767 5766 5766 5765 5765
5740 5740 5741 5741 5741 5741 5742 5743 5744 5745 5746 5747 5748 5749 5750 5751 5752 5753 5754 5755 5756 5757 5758 5758 5759 5759 5760 5760 5761 5761 5761 5762 5761 5761 5761 5761 5760 5760
5734 5734 5735 5735 5735 5735 5736 5737 5738 5739 5740 5741 5742 5743 5744 5745 5746 5746 5747 5748 5749 5750 5751 5752 5753 5754 5754 5754 5755 5755 5756 5756 5756 5755 5755 5755 5755 5755
5728 5728 5729 5729 5729 5730 5730 5731 5732 5733 5734 5735 5736 5738 5739 5739 5740 5741 5741 5743 5744 5745 5746 5747 5747 5748 5749 5749 5749 5750 5750 5750 5750 5750 5750 5750 5750 5749
5722 5723 5723 5723 5724 5724 5724 5725 5726 5727 5728 5729 5730 5732 5733 5734 5734 5735 5736 5737 5738 5739 5740 5741 5742 5743 5743 5744 5744 5744 5745 5745 5745 5745 5745 5745 5744 5744
5717 5717 5718 5718 5718 5719 5719 5720 5720 5721 5722 5724 5725 5726 5727 5728 5729 5730 5731 5732 5733 5734 5735 5736 5737 5738 5738 5739 5739 5739 5739 5739 5739 5739 5739 5739 5739 5739
5712 5712 5713 5713 5713 5714 5714 5714 5715 5716 5717 5718 5719 5721 5722 5723 5724 5725 5726 5727 5728 5729 5730 5731 5732 5733 5733 5734 5734 5734 5734 5734 5734 5734 5734 5734 5734 5733
5708 5708 5708 5709 5709 5709 5710 5710 5710 5712 5713 5714 5715 5716 5717 5719 5720 5721 5722 5723 5724 5726 5727 5728 5728 5729 5729 5729 5730 5729 5729 5729 5729 5729 5729 5729 5729 5728
5704 5705 5705 5705 5705 5705 5706 5706 5707 5707 5709 5710 5711 5712 5713 5715 5716 5717 5718 5720 5721 5723 5724 5724 5725 5725 5725 5725 5725 5725 5725 5725 5725 5724 5724 5724 5724 5723
5701 5702 5702 5702 5702 5702 5703 5703 5704 5704 5705 5706 5707 5709 5710 5712 5713 5714 5715 5717 5718 5719 5720 5721 5721 5721 5721 5721 5721 5721 5721 5720 5720 5720 5720 5720 5719 5718
5699 5699 5700 5700 5700 5700 5701 5701 5701 5702 5703 5704 5705 5706 5708 5709 5710 5712 5713 5714 5715 5716 5717 5717 5717 5717 5717 5717 5717 5717 5717 5716 5716 5716 5715 5715 5714 5713
5697 5697 5698 5698 5698 5698 5699 5699 5700 5700 5701 5702 5703 5704 5705 5707 5708 5709 5710 5711 5712 5713 5713 5714 5714 5714 5713 5713 5713 5713 5713 5713 5712 5712 5711 5710 5709 5708
5695 5696 5696 5697 5697 5697 5698 5698 5698 5699 5700 5701 5701 5702 5703 5705 5706 5707 5708 5708 5709 5710 5710 5710 5710 5710 5710 5710 5710 5710 5709 5709 5708 5707 5706 5705 5704 5702
5695 5695 5695 5696 5696 5697 5697 5697 5698 5698 5699 5699 5700 5701 5702 5703 5704 5705 5705 5706 5706 5706 5707 5707 5707 5707 5707 5706 5706 5705 5705 5704 5704 5702 5701 5700 5698 5696
5694 5694 5695 5695 5695 5696 5696 5696 5697 5697 5698 5698 5699 5700 5700 5701 5702 5702 5703 5703 5703 5703 5703 5703 5703 5703 5703 5703 5702 5701 5700 5699 5698 5697 5695 5694 5692 5689
5694 5694 5694 5695 5695 5695 5696 5696 5696 5696 5697 5697 5697 5698 5699 5699 5700 5700 5700 5700 5700 5700 5700 5700 5699 5699 5698 5698 5698 5697 5695 5694 5692 5690 5689 5686 5684 5682
5694 5694 5694 5694 5694 5695 5695 5695 5695 5695 5695 5695 5696 5696 5697 5697 5697 5698 5698 5698 5698 5697 5697 5696 5695 5695 5694 5693 5692 5691 5690 5687 5685 5683 5681 5679 5676 5673
5694 5693 5693 5693 5693 5693 5693 5693 5693 5693 5693 5694 5694 5694 5694 5694 5695 5695 5695 5695 5694 5693 5693 5692 5691 5690 5689 5687 5686 5684 5683 5680 5678 5676 5673 5671 5667 5664
5693 5693 5693 5692 5692 5692 5692 5692 5691 5691 5691 5691 5691 5691 5692 5692 5691 5691 5691 5691 5690 5689 5688 5686 5685 5684 5682 5680 5679 5677 5674 5672 5669 5667 5665 5662 5659 5656